Location: Kapuskasing
(49.3803°N, 82.4001°W)
Time: 09:45:56
(UTC-04:00)

Envisat - Pass Details

Date: 15 March 2026
Orbit: 761 x 762 km, 98.4° (Epoch: 11 April)

Event Time Altitude Azimuth Distance (km) Brightness Sun altitude
Rises 05:22:57 0° 6° (N) 3,237 6.7 -23.0°
Reaches altitude 10° 05:25:29 10° 356° (N) 2,306 5.7 -22.6°
Enters shadow 05:29:27 29° 306° (NW) 1,366 4.0 -22.0°
